This demonstration page uses our WeatherBlox Daily Observations layout. Learn more.

Left ArrowRight Arrow

38.20091, -84.87328

Hourly Observations for January 9, 2016

Temp ( °F °C ) Dew Point ( °F °C ) Humidity (%) Winds ( mph kmh ) Pressure ( in mb ) Visibility ( mi km ) Precip ( " mm )
12:53 am 00:53 Mostly Cloudy 48 8.9 45 7.2 89 89 S 6 9 29.89 1012 10 16 0.00 0.00
1:53 am 01:53 Mostly Clear 47 8.3 44 6.7 90 90 S 8 13 29.91 1013 10 16 0.00 0.00
2:53 am 02:53 Mostly Cloudy 47 8.3 44 6.7 90 90 S 6 9 29.91 1013 10 16 0.00 0.00
3:03 am 03:03 Cloudy 47 8.3 44 6.7 90 90 S 5 7 29.94 1014 10 16 0.00 0.00
3:10 am 03:10 Cloudy 47 8.3 44 6.7 90 90 SSW 6 9 29.94 1014 10 16 0.00 0.00
3:53 am 03:53 Cloudy 46 7.8 44 6.7 93 93 S 3 6 29.91 1013 10 16 0.00 0.00
4:51 am 04:51 Clear with Mist and Fog 43 6 41 5 93 93 Calm 29.94 1014 2 3 0.00 0.00
4:53 am 04:53 Clear with Mist and Fog 42 5.6 41 5 96 96 Calm 29.90 1013 1 2 0.00 0.00
5:00 am 05:00 Clear with Mist and Fog 41 5 40 4.4 96 96 Calm 29.94 1014 1 1 0.00 0.00
5:24 am 05:24 Partly Cloudy with Mist and Fog 41 5 39 3.9 93 93 SSE 5 7 29.94 1014 1 2 0.00 0.00
5:26 am 05:26 Mostly Cloudy with Mist and Fog 42 5.6 40 4.4 92 92 SSE 3 6 29.94 1014 3 5 0.00 0.00
5:53 am 05:53 Cloudy 44 6.7 42 5.6 93 93 SSE 3 6 29.91 1013 10 16 0.00 0.00
6:53 am 06:53 Clear 44 6.7 43 6.1 96 96 SSE 5 7 29.90 1012 9 14 0.00 0.00
7:53 am 07:53 Clear 46 7.8 43 6.1 89 89 SSE 9 15 29.90 1013 10 16 0.00 0.00
8:53 am 08:53 Mostly Sunny 46 7.8 43 6.1 89 89 SE 8 13 29.88 1012 10 16 0.00 0.00
9:53 am 09:53 Sunny 48 8.9 44 6.7 86 86 SSE 7 11 29.87 1012 10 16 0.00 0.00
10:53 am 10:53 Mostly Sunny 49 9.4 44 6.7 83 83 SSE 8 13 29.90 1012 10 16 0.00 0.00
11:53 am 11:53 Sunny 51 10.6 45 7.2 80 80 SSE 7 11 29.87 1012 10 16 0.00 0.00
12:53 pm 12:53 Sunny 54 12.2 46 7.8 75 75 SE 8 13 29.82 1010 10 16 0.00 0.00
1:53 pm 13:53 Sunny 54 12.2 45 7.2 72 72 SSE 10 17 29.79 1009 10 16 0.00 0.00
2:39 pm 14:39 Mostly Cloudy 54 12.2 45 7.2 72 72 SSE 5 7 29.77 1008 10 16 0.00 0.00
2:53 pm 14:53 Mostly Cloudy 54 12.2 45 7.2 72 72 SSE 9 15 29.76 1008 10 16 0.00 0.00
3:13 pm 15:13 Cloudy 54 12.2 45 7.2 72 72 SSE 7 11 29.77 1008 10 16 0.00 0.00
3:53 pm 15:53 Cloudy 53 11.7 45 7.2 74 74 ESE 6 9 29.74 1007 10 16 0.00 0.00
4:17 pm 16:17 Cloudy 53 11.7 44 6.7 72 72 ESE 7 11 29.74 1007 10 16 0.00 0.00
4:53 pm 16:53 Mostly Cloudy 53 11.7 45 7.2 74 74 ESE 7 11 29.72 1007 10 16 0.00 0.00
5:53 pm 17:53 Mostly Cloudy 52 11.1 44 6.7 75 75 ESE 6 9 29.70 1006 10 16 0.00 0.00
6:53 pm 18:53 Cloudy with Light Rain 51 10.6 45 7.2 80 80 E 9 15 29.67 1005 10 16 0.00 0.03
7:32 pm 19:32 Cloudy with Heavy Rain 50 10 46 7.8 86 86 ESE 7 11 29.68 1005 2 3 0.12 3.05
7:42 pm 19:42 Cloudy with Rain 49 9.4 46 7.8 90 90 ESE 8 13 29.65 1004 4 6 0.17 4.32
7:53 pm 19:53 Cloudy with Light Rain 49 9.4 46 7.8 90 90 ESE 8 13 29.65 1004 5 8 0.19 4.83
8:53 pm 20:53 Cloudy with Heavy Rain 49 9.4 46 7.8 90 90 NE 3 6 29.62 1003 3 5 0.10 2.54
9:53 pm 21:53 Cloudy 49 9.4 46 7.8 90 90 Calm 29.58 1002 10 16 0.06 1.52
10:53 pm 22:53 Cloudy with Light Rain 48 8.9 45 7.2 89 89 SE 8 13 29.55 1001 10 16 0.02 0.51
11:49 pm 23:49 Cloudy 48 9 45 7 87 87 SSE 9 15 29.53 1000 10 16 0.01 0.25
11:53 pm 23:53 Cloudy 49 9.4 45 7.2 86 86 S 9 15 29.51 999 10 16 0.01 0.25

Powered by AerisWeather